Location: Newark
(46.7636°N, 1.8358°W)
Time: 14:59:21
(UTC+00:00)

Vanguard 2 Rocket - Pass Details

Date: 15 October 2019
Orbit: 554 x 3326 km, 32.9° (Epoch: 13 November)

Event Time Altitude Azimuth Distance (km) Brightness Sun altitude
Rises 15:19:54 0° 271° (W) 7,127 12.3 18.1°
Reaches altitude 10° 15:25:40 10° 264° (W) 5,841 12.3 17.3°
Maximum altitude 15:39:39 34° 209° (SSW) 3,240 10.9 15.3°
Drops below altitude 10° 15:48:50 10° 150° (SSE) 3,810 10.1 14.0°
Sets 15:51:44 0° 140° (SE) 4,453 10.3 13.5°
